Regional Weather Roundup
Issued by NWS

Home | Current Version | Previous Version | Text Only | Print | Product List | Glossary Off
Versions: 1 2 3 4 5 6 7 8 9 10 11 12 13 14 15 16 17 18 19 20 21 22 23 24 25 26 27

000
ASUS45 KCYS 272310
RWRWY

WYOMING REGIONAL WEATHER ROUNDUP
NATIONAL WEATHER SERVICE CHEYENNE WY
500 PM MDT SAT AUG 27 2016

NOTE:  "FAIR" INDICATES FEW OR NO CLOUDS BELOW 12,000 FEET
WITH NO SIGNIFICANT WEATHER AND/OR OBSTRUCTIONS TO VISIBILITY.

WYZ001-280000-
YELLOWSTONE NATIONAL PARK

CITY           SKY/WX    TMP DP  RH WIND       PRES   REMARKS
LK YELLOWSTONE   N/A     66  17  15 VRB6      30.18S
W YELLOWSTONE  NOT AVBL

$$
WYZ002>013-054>058-071-098>099-280000-
NORTHERN WYOMING

CITY           SKY/WX    TMP DP  RH WIND       PRES   REMARKS
JACKSON        SUNNY     75  23  14 SW17G25   30.09S
CODY           FAIR      77  30  18 SE12      29.94F
GREYBULL       FAIR      84  29  13 S6        29.87F
WORLAND        FAIR      85  27  12 SW9       29.88F
SHERIDAN       FAIR      83  39  21 E5        29.88F
BUFFALO        FAIR      79  32  18 N10       29.95S
GILLETTE       FAIR      84  29  13 VRB6      29.89F
HULETT         FAIR      79  43  27 S9        29.93S
NEWCASTLE      FAIR      79  39  24 SE10      29.95S

$$
WYZ014>020-022>026-101>103-280000-
CENTRAL WYOMING

CITY           SKY/WX    TMP DP  RH WIND       PRES   REMARKS
BIG PINEY      FAIR      75  26  16 W13G25    30.13F
PINEDALE       FAIR      72  23  16 W6        30.14S
DUBOIS         FAIR      72  18  13 NW21G31   30.10S
LANDER         FAIR      83  22  10 W14       29.98S
RIVERTON       FAIR      78  25  14 S5        30.00S
CASPER         FAIR      81  21  11 W20G28    29.99S
DOUGLAS        FAIR      84  27  12 W8        29.98F

$$
WYZ021-027>030-104>119-280000-
SOUTHERN WYOMING

CITY           SKY/WX    TMP DP  RH WIND       PRES   REMARKS
EVANSTON       FAIR      75  19  12 W12       30.18S
FORT BRIDGER   FAIR      78  21  12 NW18G29   30.18S
ROCK SPRINGS   FAIR      76  18  11 SW8       30.12F
DIXON          FAIR      79  26  14 W9        30.17F
RAWLINS        FAIR      77  23  13 W21G26    30.13S
SARATOGA       FAIR      75  25  15 W17       30.17F
LARAMIE        PTSUNNY   74  30  19 SW17G24   30.15F
CHEYENNE       FAIR      78  34  20 VRB3      30.10S
TORRINGTON     FAIR      85  42  22 SE13      29.95S
PINE BLUFFS    FAIR      82  32  16 SW7       30.05S

$$




USA.gov is the U.S. government's official web portal to all federal, state and local government web resources and services.